Cloud_Cover
90 68 5 5 5 6 2 5 3 56 100 9 4 7 100 93 10 5 50 100 100 100 97 25 0 0 0 0 0 0 0 0 0 2 5 5 1 4 0 0 0 0 0 0 0
34 95 45 6 5 0 1 2 5 0 36 5 5 10 99 64 0 1 5 94 88 100 100 86 34 2 0 0 0 0 0 0 0 0 2 0 0 0 0 0 0 0 0 0 0
5 15 100 5 4 5 92 5 12 0 0 24 5 5 11 27 0 0 3 19 48 89 86 100 94 5 3 0 0 0 0 0 0 0 0 0 0 0 2 0 0 0 0 0 0
0 2 0 100 4 2 6 100 41 5 5 1 5 5 5 5 3 0 0 5 11 75 39 67 100 100 41 14 0 0 0 0 0 0 0 0 0 0 0 0 0 0 0 0 0
0 0 0 12 99 6 63 100 96 2 5 2 0 15 36 5 3 0 0 0 4 5 10 35 97 64 69 55 8 0 0 0 0 0 0 0 1 5 82 22 4 0 0 0 0
0 0 0 0 5 5 12 25 100 100 76 99 3 1 5 5 5 4 1 0 0 5 5 18 95 100 100 79 6 9 4 2 1 0 0 3 7 56 59 5 5 1 0 0 0
0 0 0 0 0 5 1 3 4 80 100 30 5 7 5 5 4 4 0 0 0 1 75 46 52 100 86 72 33 27 5 0 1 5 0 0 5 100 55 11 5 0 0 0 0
0 0 0 0 0 0 0 0 0 0 32 40 4 0 5 15 0 3 0 0 0 0 5 96 92 95 100 59 5 72 44 79 24 4 5 0 50 15 40 14 3 5 5 4 5
0 0 0 0 0 0 0 0 0 0 0 4 32 5 8 5 5 0 2 2 0 0 0 5 70 100 53 92 34 33 79 97 96 99 76 38 6 5 5 5 0 5 5 5 5
0 0 0 0 0 0 0 0 0 11 11 0 0 0 15 69 59 16 4 5 0 0 0 1 5 16 100 34 99 95 85 100 87 94 100 52 70 100 17 5 5 5 2 5 5
0 0 0 0 0 0 1 0 0 0 0 0 0 0 0 5 5 70 5 5 2 3 5 5 4 0 6 100 93 100 100 100 100 95 70 100 99 5 44 5 5 5 5 5 5
0 0 0 0 0 0 0 0 0 0 0 0 0 0 0 0 2 5 30 5 5 5 5 5 5 0 0 5 75 100 100 100 100 100 100 93 100 100 71 5 5 5 5 5 79
0 0 0 0 0 0 0 0 0 0 0 0 0 0 0 0 0 5 5 57 84 28 4 5 1 5 5 2 5 30 100 100 75 100 97 78 100 100 100 28 24 3 5 5 5
5 0 0 0 0 0 0 0 0 0 0 0 0 0 0 0 0 5 5 27 56 100 99 96 5 5 5 5 4 5 83 10 5 54 100 100 100 100 100 100 44 2 5 5 21
5 5 0 0 0 0 0 0 0 0 0 0 0 0 0 0 0 4 5 10 9 6 40 6 80 5 38 5 22 5 4 5 5 15 5 92 100 100 100 100 100 7 5 5 5
5 5 14 29 0 0 0 0 0 0 0 0 0 0 0 0 0 1 5 5 0 14 12 4 2 5 0 6 62 5 5 5 5 5 5 48 100 100 100 100 100 88 5 5 77
5 5 16 5 24 0 0 0 0 0 0 0 0 0 0 0 0 0 0 2 0 0 0 0 0 0 0 0 39 82 42 5 6 20 21 17 34 100 100 100 100 93 90 13 5
56 34 5 5 24 5 0 0 0 0 0 0 0 0 0 0 0 0 0 0 0 1 0 0 0 0 0 0 0 81 81 100 86 30 67 12 10 80 100 100 100 100 100 96 71
22 34 5 5 5 99 47 5 0 0 0 0 0 0 0 0 0 0 0 0 0 0 0 0 0 0 0 0 0 0 8 20 8 6 5 94 16 5 93 100 100 100 100 100 100
58 5 16 5 5 10 70 42 4 0 0 0 0 0 0 0 0 0 0 0 0 0 0 0 0 0 0 0 0 0 0 2 4 4 19 86 96 67 29 98 10 94 100 100 100
98 23 69 5 25 7 76 8 5 0 0 0 0 0 0 0 0 0 0 0 0 0 0 0 0 2 0 0 2 0 0 0 0 0 0 9 24 90 92 5 13 5 5 5 23
100 5 16 92 20 7 13 95 6 0 3 0 0 0 0 0 0 0 0 0 0 0 0 0 0 0 12 1 0 0 0 0 0 2 2 5 47 18 100 17 3 0 5 5 25
96 40 6 25 5 5 5 5 57 5 5 5 0 2 0 0 0 0 0 0 0 0 0 2 0 4 2 1 2 0 0 0 0 0 0 2 2 60 100 99 46 1 0 2 3
99 97 85 41 5 5 5 11 53 5 5 5 3 5 5 5 0 0 0 0 0 0 0 0 0 0 83 100 94 13 0 0 0 0 3 5 4 2 5 4 2 2 2 2 5
83 33 59 100 99 92 90 6 96 91 14 5 5 4 21 22 5 2 0 0 0 0 0 0 0 0 0 0 0 0 1 0 3 1 1 4 7 26 4 1 1 0 0 1 5
100 100 100 100 100 68 79 17 100 100 52 5 5 5 5 31 74 9 5 5 2 0 0 0 0 0 0 0 0 0 0 0 3 2 5 4 5 6 0 0 0 0 0 0 6
100 100 100 79 68 100 100 37 100 100 92 94 43 5 0 0 5 13 24 34 5 5 0 0 0 0 0 0 0 0 0 0 0 5 4 3 63 73 4 0 0 2 7 74 97